[[{"header":{"parameterUnit":"m.s-1","parameterCategory":1,"la1":30.2991,"la2":30.254,"lo1":-89.0895,"lo2":-89.0444,"dy":0.0017,"dx":0.0017,"nx":28,"ny":28,"refTime":"2025-07-29T21:00:00:Z","depth":0,"parameterNumber":2,"parameterNumberName":"U-component_of_WINDS"},"data":[0,0,0,0,0,0,0,0,0,0,0,0,0,0,0,0,0,0,0,0,0,0,0,0,0,0,0,0,0,0,0,0,0,0,0,0,0,0,0,0,0,0,0,0,0,0,0,0,0,0,0,0,0,0,0,0,0,0,1.492,1.4922,0,1.5094,1.5096,1.5098,1.5076,1.5073,1.507,1.5067,1.5252,1.5259,1.5267,0,0,0,0,0,0,0,0,0,0,0,0,0,1.4575,1.4582,1.492,1.4922,1.4924,1.5094,1.5096,1.5099,1.5076,1.5073,1.5069,1.5066,1.525,1.5259,1.5268,0,0,0,0,0,0,0,0,0,0,0,0,0,1.4735,1.4584,1.492,1.4933,1.4936,1.5094,1.5097,1.5099,1.5077,1.5073,1.5068,1.5064,1.5247,1.5258,1.5269,1.5426,0,0,1.5304,1.5309,0,0,0,0,0,0,0,0,1.4726,1.4748,1.4929,1.4933,1.4936,1.5059,1.5043,1.5209,1.5078,1.5024,1.5067,1.5062,1.5192,1.5207,1.525,1.5434,1.5442,1.5305,1.5312,1.5317,1.532,0,0,0,0,0,0,0,1.4715,1.474,1.4989,1.4932,1.4936,1.4933,1.4951,1.5074,1.513,1.5028,1.5027,1.5047,1.5193,1.5239,1.5254,1.5445,1.5304,1.5315,1.5322,1.5326,1.577,1.5775,0,0,0,0,0,0,1.4699,1.4731,1.4984,1.4994,1.4818,1.4943,1.4963,1.5024,1.5129,1.514,1.5051,1.5046,1.5221,1.5241,1.526,1.5453,1.5317,1.5327,1.5334,1.5765,1.5771,1.5776,0,0,0,0,0,0,1.4692,1.4722,1.4977,1.4862,1.4895,1.4953,1.5022,1.503,1.5075,1.5146,1.5156,1.5087,1.5219,1.5244,1.5385,1.5459,1.5332,1.5343,1.5759,1.5767,1.5774,1.5837,0,0,0,0,0,0,1.4682,1.4719,1.4778,1.4864,1.4901,1.5096,1.5027,1.5036,1.5094,1.5089,1.5182,1.5194,1.5217,1.5368,1.5396,1.5472,1.5352,1.5753,1.5763,1.5771,1.5829,1.5846,1.586,0,0,0,0,0,1.467,1.4789,1.4781,1.4811,1.4974,1.51,1.5122,1.5145,1.51,1.5161,1.5206,1.5191,1.5446,1.5383,1.5414,1.5495,1.5748,1.576,1.5771,1.5822,1.5842,1.586,0,0,0,0,0,0,1.4712,1.4801,1.4792,1.4943,1.5014,1.5096,1.5173,1.5165,1.5252,1.5244,1.5271,1.5292,1.5435,1.5479,1.5407,1.5653,1.5591,1.5609,1.5619,1.564,1.5655,1.5642,1.5361,0,0,0,0,0,1.4739,1.4831,1.4905,1.5031,1.5067,1.5114,1.517,1.5181,1.5257,1.5287,1.5343,1.5419,1.5517,1.558,1.5674,1.5835,1.5856,1.5906,1.5922,1.5934,1.595,1.6041,1.6065,1.5813,1.5813,1.5813,0,0,1.4795,1.4855,1.4912,1.5041,1.5097,1.5195,1.5139,1.5245,1.5319,1.5304,1.544,1.5484,1.5571,1.5723,1.5793,1.5764,1.6024,1.5948,1.5958,1.5967,1.6055,1.6079,1.61,1.5821,1.5819,1.5818,0,0,1.4948,1.5001,1.5113,1.5171,1.5257,1.5288,1.5315,1.5399,1.5427,1.5563,1.5555,1.5645,1.5811,1.5874,1.5928,1.6107,1.6097,1.6137,1.622,1.6308,1.6328,1.6346,1.6412,1.6435,1.6152,1.6152,1.6152,0,1.5008,1.5153,1.5172,1.5279,1.5338,1.5327,1.5442,1.5498,1.5611,1.5653,1.5618,1.5828,1.5886,1.6054,1.6097,1.614,1.6174,1.6126,1.6323,1.6341,1.6358,1.6422,1.6446,1.6156,1.6156,1.6155,1.6155,0,1.5223,1.5324,1.5405,1.5513,1.558,1.569,1.5729,1.5795,1.5801,1.5837,1.5978,1.6046,1.6155,1.6195,1.6202,1.6365,1.6345,1.6316,1.6255,1.6386,1.6446,1.6471,1.6163,1.6161,1.616,1.6159,0,0,1.5408,1.5525,1.5555,1.5605,1.5699,1.5779,1.5891,1.5995,1.6052,1.6131,1.6227,1.6369,1.6344,1.6405,1.6419,1.6497,1.6637,1.646,1.6462,1.6492,1.6824,1.6845,1.6873,1.663,1.6635,1.6639,1.6817,0,1.5572,1.5766,1.5788,1.5963,1.6058,1.605,1.6148,1.6218,1.6255,1.6343,1.6384,1.6485,1.6443,1.648,1.6556,1.6604,1.6704,1.6591,1.6723,1.6727,1.6702,1.6904,1.6927,1.7091,1.684,1.6844,1.6847,0,1.5788,1.5872,1.6056,1.6139,1.618,1.6267,1.6366,1.6449,1.653,1.6551,1.662,1.6625,1.6743,1.6676,1.6841,1.6763,1.6819,1.6851,1.6858,1.6872,1.6796,1.6926,1.7144,1.717,1.6884,1.6881,1.6878,0,1.5907,1.6066,1.6197,1.624,1.634,1.6401,1.6447,1.6523,1.6585,1.6671,1.6712,1.6812,1.6868,1.6946,1.6979,1.6927,1.7143,1.7078,1.7166,1.7166,1.7213,1.721,1.7446,1.7246,1.7246,1.7245,1.7245,0,1.6088,1.6202,1.6252,1.6333,1.6461,1.6486,1.6612,1.6655,1.6723,1.6814,1.6814,1.69,1.6938,1.703,1.7057,1.7191,1.7216,1.7238,1.7244,1.7239,1.7237,1.7277,1.7267,1.7252,1.7251,1.7249,1.7248,0,1.6243,1.628,1.6423,1.6506,1.653,1.6621,1.6693,1.6773,1.6808,1.6924,1.6953,1.701,1.7119,1.7159,1.7292,1.7311,1.7466,1.7462,1.7438,1.744,1.7527,1.7519,1.7798,1.7837,1.761,1.7612,1.7614,0,1.6356,1.6443,1.6536,1.6596,1.6643,1.674,1.6803,1.6832,1.6898,1.6997,1.7066,1.7174,1.7262,1.7438,1.7493,1.7596,1.7595,1.7686,1.7611,1.7603,1.7599,1.7594,1.7604,1.77,1.7703,1.7704,1.7706,0,1.6555,1.657,1.6659,1.6757,1.6832,1.691,1.6986,1.7036,1.7077,1.7152,1.7263,1.7331,1.7467,1.7576,1.7682,1.7731,1.7727,1.7729,1.7755,1.7752,1.7735,1.7747,1.7478,1.7723,1.7721,1.772,1.7719,1.7718,1.6694,1.6772,1.685,1.695,1.7011,1.7082,1.7162,1.7207,1.7299,1.7411,1.7423,1.7543,1.7625,1.7766,1.7819,1.7916,1.7891,1.7929,1.7939,1.7948,1.7955,1.7718,1.7935,1.7934,1.7934,1.7934,1.7933,0,1.6895,1.6944,1.7037,1.7143,1.7223,1.721,1.7294,1.7363,1.7467,1.7542,1.7629,1.7758,1.7864,1.7927,1.8034,1.8099,1.81,1.8126,1.8123,1.8134,1.797,1.7937,1.8124,1.8124,1.8124,1.8124,1.8124,1.8124,1.7008,1.714,1.7164,1.7327,1.7376,1.7492,1.7542,1.7609,1.7669,1.7812,1.79,1.7939,1.8011,1.8123,1.8221,1.8237,1.8277,1.8306,1.832,1.8165,1.8146,1.8127,1.8097,1.8314,1.8314,1.8477,1.8479,1.848]},{"header":{"parameterUnit":"m.s-1","parameterCategory":1,"la1":30.2991,"la2":30.254,"lo1":-89.0895,"lo2":-89.0444,"dy":0.0017,"dx":0.0017,"nx":28,"ny":28,"refTime":"2025-07-29T21:00:00:Z","depth":0,"parameterNumber":3,"parameterNumberName":"V-component_of_WINDS"},"data":[0,0,0,0,0,0,0,0,0,0,0,0,0,0,0,0,0,0,0,0,0,0,0,0,0,0,0,0,0,0,0,0,0,0,0,0,0,0,0,0,0,0,0,0,0,0,0,0,0,0,0,0,0,0,0,0,0,0,0.9742,0.9744,0,0.9934,0.9936,0.9938,0.9893,0.9889,0.9885,0.9882,1.0076,1.0085,1.0093,0,0,0,0,0,0,0,0,0,0,0,0,0,0.9332,0.934,0.9742,0.9744,0.9747,0.9933,0.9936,0.9939,0.9893,0.9889,0.9884,0.988,1.0074,1.0084,1.0094,0,0,0,0,0,0,0,0,0,0,0,0,0,0.9516,0.9343,0.9742,0.9747,0.9749,0.9933,0.9936,0.9939,0.9894,0.9889,0.9883,0.9878,1.007,1.0083,1.0096,1.0286,0,0,1.0135,1.0141,0,0,0,0,0,0,0,0,0.9505,0.9531,0.9743,0.9747,0.975,0.9884,0.9863,1.0055,0.9896,0.9839,0.9882,0.9875,1.0017,1.0034,1.0082,1.0295,1.0303,1.0136,1.0144,1.015,1.0153,0,0,0,0,0,0,0,0.9493,0.9522,0.9818,0.9747,0.975,0.9738,0.9758,0.9899,0.9956,0.9843,0.9841,0.9864,1.0017,1.0069,1.0086,1.0306,1.0136,1.0147,1.0155,1.016,1.0679,1.0685,0,0,0,0,0,0,0.9478,0.9512,0.9812,0.9823,0.9611,0.975,0.9772,0.9846,0.9955,0.9966,0.9869,0.9861,1.005,1.0071,1.0093,1.0319,1.0149,1.0162,1.0169,1.0673,1.068,1.0687,0,0,0,0,0,0,0.9469,0.9505,0.9804,0.9667,0.9704,0.9763,0.9846,0.9853,0.9905,0.9974,0.9983,0.9912,1.0046,1.0074,1.0237,1.0325,1.0167,1.0179,1.0666,1.0675,1.0684,1.0775,0,0,0,0,0,0,0.9458,0.9502,0.9577,0.9669,0.9712,0.9947,0.9852,0.9861,0.9927,0.992,1.0017,1.0027,1.0044,1.0218,1.025,1.034,1.0189,1.0658,1.067,1.0681,1.0764,1.0786,1.0804,0,0,0,0,0,0.9443,0.9595,0.9581,0.9617,0.9806,0.9952,0.9976,0.9993,0.9935,1.0009,1.0052,1.0024,1.031,1.0235,1.027,1.0366,1.0653,1.0667,1.068,1.0755,1.0781,1.0804,0,0,0,0,0,0,0.9513,0.9608,0.9592,0.978,0.9858,0.9944,1.0038,1.0022,1.0118,1.0107,1.0123,1.0145,1.031,1.0354,1.0269,1.0552,1.0473,1.0494,1.0518,1.0543,1.0563,1.0548,1.02,0,0,0,0,0,0.955,0.9661,0.9738,0.9896,0.9936,0.998,1.0045,1.0051,1.0132,1.0165,1.0221,1.0301,1.0407,1.0478,1.0581,1.077,1.0788,1.0853,1.0873,1.0889,1.0907,1.1005,1.1033,1.0731,1.0731,1.0731,0,0,0.9627,0.9693,0.9763,0.9911,0.9973,1.0086,1.0009,1.0133,1.0217,1.0184,1.034,1.0383,1.0473,1.0648,1.0728,1.069,1.0994,1.0906,1.0919,1.0928,1.1022,1.105,1.1076,1.0741,1.0739,1.0737,0,0,0.9826,0.9889,1.0025,1.0087,1.0181,1.0209,1.0241,1.033,1.0357,1.0513,1.049,1.0588,1.0774,1.0838,1.0894,1.1112,1.1088,1.1145,1.125,1.1345,1.1369,1.139,1.1464,1.1491,1.1163,1.1163,1.1163,0,0.9911,1.0082,1.0097,1.0222,1.0286,1.0261,1.0397,1.0457,1.0579,1.0623,1.0578,1.0808,1.0867,1.1054,1.1107,1.1155,1.1189,1.1134,1.1365,1.1386,1.1406,1.1476,1.1505,1.1169,1.1168,1.1168,1.1167,0,1.0179,1.0298,1.0396,1.0514,1.0589,1.0719,1.0751,1.0825,1.0824,1.0855,1.1012,1.1082,1.1196,1.1241,1.1242,1.1428,1.14,1.1361,1.128,1.144,1.1507,1.1534,1.1178,1.1176,1.1174,1.1172,0,0,1.043,1.0551,1.0586,1.0637,1.0736,1.0828,1.0955,1.1066,1.1127,1.1212,1.1316,1.1472,1.1434,1.1498,1.1505,1.1589,1.1752,1.1538,1.154,1.1573,1.1956,1.1984,1.2015,1.1737,1.1742,1.1747,1.1947,0,1.0635,1.086,1.0875,1.1077,1.1184,1.1159,1.1269,1.1341,1.1373,1.1467,1.1502,1.1611,1.1555,1.1592,1.1675,1.1715,1.1829,1.1701,1.1832,1.1836,1.1808,1.2051,1.2082,1.2268,1.1974,1.1978,1.1982,0,1.0906,1.0996,1.1209,1.1289,1.1334,1.1433,1.1534,1.1625,1.1704,1.1721,1.179,1.1784,1.1911,1.1827,1.2,1.1912,1.1967,1.1994,1.2001,1.2013,1.1918,1.2066,1.2328,1.2355,1.2024,1.202,1.2017,0,1.1062,1.1238,1.1386,1.1431,1.1529,1.1598,1.1642,1.1716,1.178,1.1867,1.1908,1.201,1.2065,1.2142,1.2162,1.2099,1.2333,1.2252,1.2348,1.2348,1.2398,1.2394,1.267,1.2437,1.2437,1.2436,1.2436,0,1.1289,1.1419,1.1457,1.1549,1.1692,1.1707,1.1848,1.1887,1.1952,1.2048,1.2034,1.2124,1.2146,1.224,1.2256,1.2394,1.242,1.2435,1.2437,1.2435,1.2433,1.247,1.2456,1.2444,1.2442,1.244,1.2439,0,1.1489,1.152,1.1679,1.1758,1.178,1.1882,1.1948,1.2034,1.2063,1.2185,1.2214,1.2259,1.2368,1.2396,1.2527,1.2537,1.2699,1.2691,1.2673,1.2671,1.2765,1.2754,1.3072,1.3113,1.2856,1.2858,1.286,0,1.163,1.1729,1.1817,1.1881,1.1927,1.203,1.2095,1.2111,1.2179,1.2274,1.2347,1.2455,1.2541,1.2716,1.2759,1.2857,1.2849,1.2953,1.2864,1.2857,1.2847,1.2839,1.2847,1.297,1.2973,1.2975,1.2977,0,1.1877,1.1886,1.1981,1.208,1.2157,1.2236,1.2311,1.2363,1.239,1.2466,1.2577,1.2644,1.2775,1.2881,1.2979,1.3021,1.3003,1.3005,1.3031,1.3029,1.3013,1.3019,1.2716,1.2997,1.2995,1.2994,1.2993,1.2992,1.205,1.2135,1.2209,1.2313,1.2371,1.244,1.2524,1.2562,1.2655,1.2763,1.2767,1.2887,1.2958,1.3088,1.3136,1.3228,1.3196,1.3236,1.3245,1.3254,1.3261,1.3,1.3246,1.3246,1.3245,1.3245,1.3244,0,1.2293,1.2339,1.2434,1.2538,1.2619,1.2595,1.2675,1.2744,1.285,1.2918,1.3003,1.3128,1.3228,1.3278,1.3377,1.3441,1.3434,1.3466,1.346,1.3469,1.3286,1.3251,1.3469,1.3469,1.3469,1.3469,1.3469,1.3469,1.2429,1.257,1.2588,1.2756,1.28,1.2917,1.2965,1.3027,1.3081,1.3222,1.3305,1.3337,1.3396,1.3499,1.3589,1.36,1.3636,1.3671,1.3678,1.3506,1.3483,1.3461,1.3428,1.368,1.368,1.3853,1.3855,1.3856]}]]